Back to catalog

STARLINK-32183

AliveCommunicationsVLEO
NORAD 60433·PAYLOAD·🇺🇸 United States

Launched Aug 12, 2024 from Cape Canaveral Space Force Station

Loading…

Next Passes (next 24 hours)

TLE

FreshSource: CelesTrak SupGP

Epoch: Sep 14, 2026, 15:08 UTC

1 60433C 24144J   26257.63104167 -.00053346  00000+0 -15761-2 0  2572
2 60433  53.1593  56.9368 0001210  91.4665 257.3941 15.34416904    15

Track STARLINK-32183 in real time with AllMySat

Download on the App Store